RH
89 89 89 88 87 77 67 66 65 64 68 74 79 79 65 70 77 87 90 90 92 89
90 91 93 90 87 79 72 62 62 67 75 88 77 64 66 74 80 83 88 89 90 90
95 94 94 90 81 72 68 58 66 71 82 69 64 64 67 72 79 84 88 89 90 91
94 90 91 84 81 73 65 61 68 76 65 65 66 66 68 74 82 81 86 88 91 90
92 87 86 83 72 67 68 67 64 64 66 64 64 66 71 77 73 82 85 85 89 89
88 81 82 77 75 64 66 71 75 68 70 71 73 68 70 74 78 81 83 82 86 84
84 80 78 71 67 72 70 69 71 74 71 69 65 69 68 68 75 83 82 85 86 84
85 78 78 73 77 76 77 72 68 76 86 87 77 65 72 70 79 83 86 86 82 80
79 74 75 76 72 73 78 84 86 90 92 91 81 80 78 82 85 84 85 83 80 71
73 72 73 69 72 79 84 92 97 94 93 90 80 79 82 86 91 87 85 81 73 66
71 70 69 75 84 93 96 96 96 92 85 81 74 80 84 88 92 86 82 77 72 70
71 76 81 89 96 98 99 95 87 81 78 79 80 81 81 86 92 82 78 73 72 73
88 93 96 96 93 87 84 83 86 81 81 83 86 82 82 87 96 90 84 81 72 77
91 91 90 88 86 83 83 87 89 89 89 86 86 86 84 85 96 93 91 86 86 81
Wind_Speed
11 8 7 8 7 7 7 7 9 7 7 6 8 9 6 3 4 5 4 6 4 4
9 10 9 10 9 7 7 7 11 11 12 11 8 6 5 3 4 4 5 5 5 4
9 9 10 10 12 13 12 15 14 11 7 8 7 7 6 4 3 5 4 4 6 5
7 9 10 11 12 15 12 9 7 6 6 4 4 3 3 4 5 7 6 5 6 6
7 9 8 6 6 7 7 9 7 5 7 6 6 5 6 6 6 8 7 7 6 6
7 8 6 6 7 9 9 8 7 7 4 5 5 5 6 7 7 7 7 7 7 7
5 6 7 8 8 9 7 9 4 4 4 3 1 5 6 6 6 6 7 7 7 7
7 7 7 9 9 8 8 6 7 8 6 1 4 3 6 7 8 8 6 7 7 7
8 8 9 9 10 10 8 9 7 4 4 3 3 13 14 9 6 6 7 8 6 6
10 11 9 9 9 8 5 4 3 4 4 7 7 9 11 11 6 6 7 7 6 6
11 12 10 8 7 5 2 2 4 5 6 5 6 9 9 8 5 5 6 6 6 6
12 10 8 6 3 3 3 4 5 4 5 6 6 8 10 6 4 5 6 5 6 7
7 5 4 1 2 2 2 4 4 5 5 7 7 9 11 8 3 4 5 5 8 14
4 3 1 1 1 2 3 4 5 5 6 6 6 7 12 11 5 5 5 5 5 6
Wind_Direction
186 190 195 182 173 186 172 154 154 151 143 148 149 180 165 165 161 168 163 180 189 195
184 182 191 176 173 165 153 153 158 170 169 167 185 176 156 183 177 172 171 196 199 211
188 195 184 170 176 172 175 176 176 173 151 169 183 177 175 172 159 200 210 194 199 213
174 182 182 180 187 185 177 165 149 141 165 169 154 123 198 196 190 210 210 211 204 221
173 166 172 171 144 122 128 128 146 154 146 152 165 191 209 218 213 208 211 219 213 230
163 173 164 133 125 129 139 143 152 156 166 175 197 182 212 222 224 221 217 209 212 219
160 131 130 131 129 124 136 136 117 114 77 73 55 238 238 237 243 228 223 212 211 212
111 114 114 114 103 89 88 77 99 84 82 187 267 266 308 277 241 229 227 218 217 214
117 112 106 98 102 107 102 83 95 153 184 251 279 255 257 258 248 232 216 222 217 220
113 107 103 99 91 86 94 99 173 209 229 245 249 259 274 277 242 225 217 211 209 218
104 105 104 98 91 84 86 239 234 238 244 250 262 264 276 279 245 230 228 214 208 207
101 99 96 105 129 203 215 236 246 251 254 256 271 269 281 275 238 242 243 224 217 212
97 95 78 114 231 241 240 257 263 260 259 265 266 274 276 257 203 235 241 233 229 225
92 118 170 234 260 279 282 291 284 274 275 267 254 268 266 253 202 222 236 232 232 227